Date,TemperatureHighF,TemperatureAvgF,TemperatureLowF,DewpointHighF,DewpointAvgF,DewpointLowF,HumidityHigh,HumidityAvg,HumidityLow,PressureMaxIn,PressureMinIn,WindSpeedMaxMPH,WindSpeedAvgMPH,GustSpeedMaxMPH,PrecipitationSumIn
2013-1-1,42,40,35,12,1,-12,37,20,10,30.03,29.87,12,6,0,0.00
2013-1-2,36,30,24,8,-6,-19,49,21,10,30.28,29.99,12,3,0,0.00
2013-1-3,36,28,23,17,0,-18,62,33,9,30.29,30.14,9,2,0,0.00
2013-1-4,41,35,29,10,-4,-15,43,21,9,30.21,30.06,21,8,0,0.00
2013-1-5,43,34,28,14,-2,-17,52,22,8,30.39,30.14,11,3,0,0.00
2013-1-6,51,40,30,31,9,-13,94,35,7,30.24,29.99,12,2,0,0.00
2013-1-7,50,39,27,28,6,-11,93,32,9,30.46,30.11,13,4,0,0.00
2013-1-8,51,39,26,28,14,-6,91,42,10,30.46,30.34,15,3,0,0.00
2013-1-9,53,42,32,37,24,12,100,55,20,30.40,30.18,10,3,0,0.00
2013-1-10,50,43,35,20,2,-11,51,20,8,30.58,30.33,15,3,0,0.00
2013-1-11,49,41,33,48,30,16,100,67,38,30.52,30.07,6,1,0,0.16
2013-1-12,59,48,44,50,42,19,100,84,24,30.17,30.07,7,1,0,0.00
2013-1-13,56,47,42,56,47,42,100,100,100,30.14,29.94,7,2,0,0.00
2013-1-14,59,52,40,59,40,16,100,70,30,30.28,29.90,16,4,0,0.24
2013-1-15,40,38,35,40,30,18,100,77,43,30.34,30.17,8,2,0,0.67
2013-1-16,40,37,34,39,36,32,100,94,87,30.17,29.82,13,2,0,0.47
2013-1-17,43,40,36,40,20,1,99,52,18,30.13,29.96,11,2,0,0.00
2013-1-18,38,32,26,20,-3,-22,53,25,8,30.55,30.04,17,5,0,0.00
2013-1-19,50,38,28,13,0,-16,45,22,7,30.46,29.96,18,8,0,0.00
2013-1-20,58,44,31,1,-6,-20,18,12,6,30.12,29.80,21,9,0,0.00
2013-1-21,42,31,27,27,-6,-22,89,24,10,30.15,29.82,19,5,0,0.00
2013-1-22,28,20,15,-9,-20,-28,20,15,10,30.36,29.91,22,12,0,0.00
2013-1-23,24,18,13,-14,-21,-29,21,15,11,30.39,30.22,18,7,0,0.00
2013-1-24,25,17,13,6,-6,-25,64,40,12,30.36,30.17,14,5,0,0.00
2013-1-25,23,19,12,16,-4,-25,98,47,11,30.51,30.12,9,2,0,0.00
2013-1-26,31,22,10,16,1,-16,88,46,13,30.50,30.14,12,4,0,0.00
2013-1-27,39,25,14,15,0,-20,94,46,9,30.63,30.48,10,2,0,0.00
2013-1-28,40,34,26,40,25,2,100,69,33,30.56,30.04,14,4,0,0.04
2013-1-29,66,48,36,47,33,15,100,67,15,30.13,29.98,6,1,0,0.00
2013-1-30,68,60,49,52,39,29,79,48,26,29.99,29.29,26,10,0,0.00
2013-1-31,68,45,29,58,6,-19,97,25,8,29.94,29.09,34,18,0,0.31
2013-2-1,30,26,18,25,-11,-26,93,23,10,30.40,29.84,25,9,0,0.00
2013-2-2,30,23,13,24,-11,-28,91,29,10,30.43,30.05,13,5,0,0.00
2013-2-3,40,29,23,27,13,-10,100,60,13,30.05,29.82,18,2,0,0.00
2013-2-4,32,28,22,7,-12,-21,38,17,10,30.14,29.92,19,7,0,0.00
2013-2-5,37,32,28,32,15,6,99,52,28,29.96,29.86,7,1,0,0.00
2013-2-6,43,35,25,36,16,-8,100,57,13,30.40,29.94,12,3,0,0.00
2013-2-7,37,31,24,28,6,-15,100,44,10,30.49,30.23,9,3,0,0.00
2013-2-8,46,40,32,46,33,6,100,80,32,30.24,29.71,22,6,0,0.35
2013-2-9,37,30,26,11,-5,-17,45,22,10,30.41,29.83,27,12,0,0.00
2013-2-10,45,31,19,10,-5,-21,59,25,8,30.54,30.30,8,1,0,0.00
2013-2-11,42,38,33,42,31,5,100,80,30,30.30,29.95,7,1,0,0.31
2013-2-12,53,44,32,18,-1,-13,50,17,7,29.98,29.82,17,5,0,0.00
2013-2-13,48,36,27,36,16,-7,100,53,11,29.99,29.68,11,3,0,0.16
2013-2-14,49,38,33,38,18,-11,100,57,9,30.04,29.78,11,2,0,0.08
2013-2-15,59,44,34,40,14,-11,100,42,6,30.05,29.87,17,4,0,0.00
2013-2-16,41,36,30,40,24,-2,99,66,23,30.01,29.80,11,4,0,0.04
2013-2-17,34,28,23,0,-16,-24,26,14,9,30.18,29.80,27,14,0,0.00
2013-2-18,38,28,20,-1,-17,-26,24,13,8,30.39,30.18,21,8,0,0.00
2013-2-19,48,39,31,46,17,-3,96,45,16,30.21,29.74,19,8,0,0.04
2013-2-20,37,33,30,-2,-11,-19,21,15,10,30.01,29.82,21,11,0,0.00
2013-2-22,39,34,30,38,16,-7,98,54,17,30.36,30.23,11,2,0,0.00
2013-2-23,47,43,38,47,43,38,100,100,98,30.25,29.79,8,2,0,0.12
2013-2-24,53,40,31,42,16,-13,100,52,8,30.09,29.79,21,7,0,0.00
2013-2-25,47,36,26,24,0,-13,76,26,8,30.25,30.09,11,3,0,0.00
2013-2-26,50,37,26,49,25,12,99,67,31,30.27,29.65,21,7,0,0.43
2013-2-27,56,49,43,49,32,-2,100,66,10,29.70,29.49,25,8,0,0.08
2013-2-28,49,41,34,18,2,-13,48,21,8,29.74,29.62,17,8,0,0.00
2013-3-1,45,39,34,18,9,-6,50,31,12,29.84,29.72,16,6,0,0.00
2013-3-2,38,35,32,7,-2,-13,32,21,11,29.86,29.79,17,7,0,0.00
2013-3-3,38,33,29,3,-7,-15,29,18,10,29.87,29.78,20,10,0,0.00
2013-3-4,42,33,27,3,-10,-18,33,15,9,30.03,29.86,22,11,0,0.00
2013-3-5,49,35,25,13,0,-13,46,25,8,30.09,29.87,10,4,0,0.00
2013-3-6,43,38,34,43,30,13,100,75,39,29.92,29.62,22,12,0,0.83
2013-3-7,46,40,34,14,1,-13,38,21,9,30.11,29.90,19,10,0,0.00
2013-3-8,44,38,32,5,-6,-14,28,15,10,30.24,30.06,26,12,0,0.00
2013-3-9,60,43,31,27,-1,-14,70,19,6,30.31,30.19,11,4,0,0.00
2013-3-10,62,43,26,37,11,-12,95,42,6,30.36,30.22,9,4,0,0.00
2013-3-11,62,52,38,53,34,13,100,61,16,30.29,29.98,13,5,0,0.00
2013-3-12,63,54,38,61,40,15,97,62,28,30.01,29.70,17,7,0,0.63
2013-3-13,50,41,33,28,3,-18,77,26,7,30.01,29.84,18,8,0,0.00
2013-3-14,44,36,30,-4,-13,-20,17,11,7,30.07,29.95,26,12,0,0.00
2013-3-15,52,40,29,19,-8,-20,45,14,7,30.08,29.78,24,7,0,0.00
2013-3-16,49,40,34,25,16,4,67,41,18,29.93,29.69,13,4,0,0.00
2013-3-17,40,36,32,26,7,-12,71,35,12,30.29,29.90,10,4,0,0.00
2013-3-18,48,39,33,48,14,-16,100,47,11,30.36,29.85,12,5,0,0.43
2013-3-19,55,46,37,46,21,-17,100,55,7,29.89,29.71,15,5,0,0.04
2013-3-20,49,40,31,14,-10,-18,34,12,7,29.98,29.79,23,8,0,0.00
2013-3-21,42,33,27,17,-8,-21,56,19,9,29.88,29.73,18,8,0,0.00
2013-3-22,44,34,27,-3,-12,-22,23,13,9,30.00,29.84,24,10,0,0.00
2013-3-23,48,37,28,7,-4,-16,38,18,8,30.02,29.87,21,7,0,0.00
2013-3-24,43,36,27,20,-1,-18,56,24,8,30.02,29.70,11,2,0,0.00
2013-3-25,46,35,32,43,30,14,100,81,42,29.74,29.50,12,4,0,0.47
2013-3-26,50,40,30,32,13,-14,100,47,8,29.93,29.71,13,4,0,0.00
2013-3-27,51,42,35,15,0,-13,41,20,8,30.08,29.91,20,8,0,0.00
2013-3-28,47,41,34,18,2,-12,48,22,8,30.17,30.05,16,7,0,0.00
2013-3-29,53,43,32,24,1,-13,71,21,7,30.24,30.08,14,4,0,0.00
2013-3-30,58,45,31,37,9,-13,100,35,6,30.22,30.06,15,3,0,0.00
2013-3-31,57,48,38,54,24,-1,98,49,10,30.14,29.73,11,4,0,0.08
2013-4-1,63,50,38,48,16,-15,100,42,6,29.94,29.67,24,8,0,0.00
2013-4-2,46,38,29,17,-11,-21,57,14,7,30.16,29.95,26,8,0,0.00
2013-4-3,49,38,30,4,-12,-22,31,12,7,30.36,30.14,21,8,0,0.00
2013-4-4,52,37,25,22,-11,-21,52,13,7,30.46,30.09,13,4,0,0.00
2013-4-5,62,47,36,42,13,-15,98,42,6,30.10,29.77,14,5,0,0.31
2013-4-6,55,43,34,-1,-10,-18,22,10,7,30.32,29.99,13,4,0,0.00
2013-4-7,63,49,37,22,7,-11,53,22,6,30.31,29.96,18,7,0,0.00
2013-4-8,77,64,51,23,8,-4,33,13,5,30.04,29.89,12,5,0,0.00
2013-4-9,82,71,61,23,12,0,22,12,5,30.01,29.87,15,7,0,0.00
2013-4-10,86,74,63,27,13,0,25,11,4,29.90,29.74,17,8,0,0.00
2013-4-11,85,65,55,54,32,2,91,39,5,29.86,29.76,18,6,0,0.00
2013-4-12,59,53,47,58,51,42,99,93,55,29.84,29.60,13,6,0,1.10
2013-4-13,62,52,42,48,20,-8,100,45,6,29.92,29.74,15,3,0,0.00
2013-4-14,64,52,42,47,20,-9,100,47,6,30.12,29.92,15,3,0,0.00
2013-4-15,59,53,49,31,21,4,48,30,14,30.29,30.09,12,5,0,0.00
2013-4-16,71,60,48,40,28,17,72,34,13,30.29,30.07,20,6,0,0.00
2013-4-17,73,63,54,58,34,16,80,37,14,30.22,30.06,12,4,0,0.00
2013-4-18,72,61,54,61,38,14,93,48,12,30.23,29.98,12,4,0,0.12
2013-4-19,76,68,55,63,48,29,94,57,18,30.01,29.58,30,8,0,0.47
2013-4-20,58,50,45,46,8,-13,90,27,6,30.30,29.76,21,7,0,0.20
2013-4-21,54,44,34,25,-5,-17,60,15,7,30.61,30.29,9,3,0,0.00
2013-4-22,57,44,34,31,11,-8,87,32,8,30.61,30.38,10,4,0,0.00
2013-4-23,57,48,42,44,19,2,91,35,12,30.40,30.10,8,3,0,0.00
2013-4-24,71,58,43,56,33,13,100,53,12,30.13,29.78,16,5,0,0.00
2013-4-25,63,52,43,36,4,-10,44,16,6,30.27,29.85,20,5,0,0.00
2013-4-26,65,53,42,44,10,-11,93,27,6,30.41,30.27,13,2,0,0.00
2013-4-27,71,55,40,45,12,-11,97,30,6,30.42,30.23,6,1,0,0.00
2013-4-28,71,56,41,40,6,-11,85,20,5,30.28,30.12,13,2,0,0.00
2013-4-29,63,58,51,60,48,-6,97,75,8,30.16,30.03,10,2,0,0.67
2013-4-30,66,59,50,57,35,-5,98,56,8,30.26,30.06,10,3,0,0.08
2013-5-1,71,54,43,46,16,-6,82,29,6,30.42,30.25,10,2,0,0.00
2013-5-2,70,54,45,50,26,-7,100,49,5,30.42,30.26,7,1,0,0.00
2013-5-3,64,52,45,49,21,-5,100,43,7,30.36,30.28,9,2,0,0.00
2013-5-4,68,55,44,49,19,-7,100,38,6,30.33,30.12,8,2,0,0.00
2013-5-5,64,51,43,46,18,-8,98,36,6,30.25,30.10,7,2,0,0.00
2013-5-6,64,56,46,54,42,28,98,66,27,30.19,30.03,7,3,0,0.00
2013-5-7,68,62,57,62,57,43,98,86,43,30.07,29.90,8,3,0,0.39
2013-5-8,72,63,59,62,38,6,98,53,8,29.97,29.86,12,3,0,0.00
2013-5-9,72,63,56,59,42,16,98,56,14,29.94,29.85,10,3,0,0.35
2013-5-10,82,70,56,63,29,2,98,39,5,29.97,29.82,11,2,0,0.00
2013-5-11,76,68,63,65,49,24,96,57,18,29.91,29.68,12,5,0,0.39
2013-5-12,64,58,51,36,4,-11,46,13,6,29.98,29.76,18,9,0,0.08
2013-5-13,58,50,42,18,-5,-13,37,10,6,30.13,29.97,16,5,0,0.00
2013-5-14,61,50,36,45,6,-15,82,23,6,30.19,30.01,13,2,0,0.00
2013-5-15,76,62,49,44,27,5,81,32,9,30.06,29.66,14,3,0,0.04
2013-5-16,81,72,61,51,29,9,64,24,7,29.83,29.69,19,4,0,0.00
2013-5-17,80,68,53,52,17,-5,81,20,4,30.12,29.82,8,1,0,0.00
2013-5-18,72,62,56,59,30,2,95,38,7,30.21,30.11,8,1,0,0.00
2013-5-19,69,64,60,64,54,41,97,74,38,30.19,30.04,8,1,0,0.08
2013-5-20,80,70,65,68,52,29,97,60,17,30.09,29.91,10,3,0,0.00
2013-5-21,80,71,68,67,55,31,96,65,19,29.96,29.82,10,3,0,0.00
2013-5-22,84,74,68,68,52,32,93,54,18,29.88,29.80,12,4,0,0.00
2013-5-23,81,72,64,66,48,28,89,48,16,29.87,29.74,12,5,0,0.31
2013-5-24,67,56,48,66,31,8,97,46,19,30.06,29.71,16,6,0,0.28
2013-5-25,63,54,44,15,2,-8,27,13,6,30.08,29.98,17,7,0,0.00
2013-5-26,70,58,46,32,5,-6,50,14,6,30.16,30.03,16,4,0,0.00
2013-5-27,73,59,42,38,15,-6,67,24,6,30.24,30.11,8,1,0,0.00
2013-5-28,74,64,56,62,43,32,80,49,25,30.17,30.01,7,1,0,0.08
2013-5-29,86,76,67,50,34,10,53,26,6,30.07,29.98,13,4,0,0.00
2013-5-30,90,78,68,46,31,3,41,22,4,30.13,30.02,9,3,0,0.00
2013-5-31,87,77,66,64,36,10,86,32,6,30.11,29.95,14,4,0,0.00
2013-6-1,86,78,68,57,37,20,67,29,9,30.00,29.84,13,5,0,0.00
2013-6-2,84,76,68,65,41,28,82,33,14,29.87,29.78,16,6,0,0.12
2013-6-3,79,72,68,69,56,24,96,63,13,29.87,29.77,10,2,0,0.16
2013-6-4,77,65,56,65,19,-6,88,24,5,30.08,29.84,8,2,0,0.00
2013-6-5,81,67,55,59,23,-4,99,35,5,30.15,30.01,8,1,0,0.00
2013-6-6,77,67,57,66,36,2,95,46,6,30.07,29.84,6,1,0,0.00
2013-6-7,73,69,64,71,68,62,97,95,91,29.86,29.51,7,2,0,0.00
2013-6-8,78,69,63,63,46,23,96,50,14,30.04,29.58,10,3,0,0.00
2013-6-9,82,71,62,64,40,7,97,47,7,30.15,30.02,6,0,0,0.00
2013-6-10,82,72,66,70,57,39,96,62,24,30.08,29.78,14,3,0,0.00
2013-6-11,82,74,66,65,40,20,89,39,11,29.80,29.70,19,8,0,0.00
2013-6-12,84,75,68,56,39,22,58,30,11,29.81,29.75,10,3,0,0.00
2013-6-13,86,71,66,72,52,22,96,61,10,29.80,29.35,24,4,0,6.38
2013-6-14,75,62,55,54,35,3,92,47,7,29.82,29.51,7,2,0,0.28
2013-6-15,80,72,58,64,27,3,97,28,5,30.01,29.89,13,3,0,0.00
2013-6-16,82,70,59,63,44,13,95,52,8,29.99,29.80,14,3,0,0.00
2013-6-17,85,75,63,65,39,12,93,37,7,29.93,29.80,24,4,0,1.14
2013-6-18,78,67,62,65,58,41,97,76,27,29.83,29.77,7,0,0,2.20
2013-6-19,79,68,60,63,34,2,98,44,6,30.13,29.82,9,1,0,0.00
2013-6-20,80,67,54,58,26,-4,99,35,4,30.24,30.12,6,1,0,0.00
2013-6-21,82,67,53,56,27,-4,99,35,5,30.29,30.16,5,0,0,0.00
2013-6-22,84,71,57,60,36,9,99,41,6,30.22,30.06,10,2,0,0.00
2013-6-23,81,72,63,70,55,34,95,59,20,30.16,29.99,9,1,0,0.39
2013-6-24,89,78,71,70,48,19,96,46,9,30.07,29.90,10,3,0,0.00
2013-6-25,89,79,68,68,45,18,94,41,8,29.97,29.81,25,4,0,0.00
2013-6-26,89,77,68,70,45,18,92,43,8,29.90,29.74,12,4,0,0.04
2013-6-27,88,76,70,71,53,26,96,53,12,29.80,29.56,17,4,0,0.00
2013-6-28,86,76,67,70,50,26,95,50,12,29.61,29.44,13,4,0,0.08
2013-6-29,87,76,66,71,42,6,97,46,5,29.69,29.48,10,2,0,0.00
2013-6-30,82,76,69,75,61,36,96,66,21,29.82,29.67,15,1,0,0.12
2013-7-1,81,74,72,73,64,46,96,74,32,29.96,29.80,11,2,0,0.43
2013-7-2,80,74,72,70,64,43,93,73,28,30.08,29.95,10,3,0,0.04
2013-7-3,83,78,74,67,55,41,78,47,23,30.20,30.11,8,3,0,0.00
2013-7-4,88,79,73,74,51,25,96,48,11,30.24,30.11,13,4,0,0.00
2013-7-5,88,80,72,71,47,28,93,41,12,30.20,30.06,18,5,0,0.00
2013-7-6,91,81,75,70,48,20,83,39,8,30.14,29.99,12,5,0,0.00
2013-7-7,91,80,72,68,43,21,86,34,9,30.07,29.90,15,5,0,0.00
2013-7-8,88,76,70,65,46,20,80,41,9,30.04,29.95,13,3,0,0.00
2013-7-9,86,78,71,64,46,31,75,37,15,30.05,29.93,9,2,0,0.00
2013-7-10,88,79,73,73,50,25,93,43,11,29.98,29.80,13,4,0,0.00
2013-7-11,84,76,72,68,50,22,84,45,11,29.87,29.80,11,3,0,0.08
2013-7-12,74,71,68,73,65,46,96,83,42,29.94,29.83,8,1,0,2.40
2013-7-13,86,76,72,76,60,29,97,66,14,30.25,29.92,8,1,0,0.00
2013-7-14,90,80,73,75,52,24,96,51,10,30.30,30.20,7,1,0,0.00
2013-7-15,92,81,72,74,49,17,96,46,7,30.27,30.09,8,2,0,0.00
2013-7-16,94,83,75,75,44,10,91,40,5,30.17,30.05,7,1,0,0.00
2013-7-17,95,83,74,76,45,6,96,44,4,30.15,30.01,5,0,0,0.00
2013-7-18,95,84,75,77,49,21,95,42,8,30.06,29.91,7,2,0,0.00
2013-7-19,93,85,78,74,47,25,85,33,9,29.96,29.80,13,4,0,0.00
2013-7-20,92,82,70,65,48,29,79,35,12,29.85,29.74,15,5,0,0.55
2013-7-21,91,77,70,74,55,13,95,60,6,29.89,29.80,7,1,0,0.35
2013-7-22,90,78,73,74,57,20,96,61,9,29.88,29.73,6,0,0,0.16
2013-7-23,85,78,71,73,51,30,95,48,14,29.76,29.57,18,3,0,0.63
2013-7-24,84,74,67,69,44,26,93,41,14,29.87,29.64,7,1,0,0.00
2013-7-25,75,66,60,54,31,20,75,29,14,29.99,29.86,9,1,0,0.00
2013-7-26,83,71,61,57,34,4,83,37,6,30.17,29.97,7,1,0,0.00
2013-7-27,85,73,65,68,42,17,96,45,9,30.16,29.99,8,1,0,0.00
2013-7-28,85,74,67,72,48,30,94,45,15,30.04,29.94,12,2,0,0.24
2013-7-29,81,72,63,71,35,1,95,42,5,30.24,30.03,9,2,0,0.00
2013-7-30,81,70,61,63,35,2,97,46,5,30.31,30.20,7,1,0,0.00
2013-7-31,83,71,63,64,42,13,95,45,8,30.26,30.10,7,1,0,0.00
2013-8-1,77,70,65,70,57,40,95,67,29,30.12,29.92,11,1,0,1.73
2013-8-2,82,73,64,67,42,11,96,47,7,30.03,29.93,10,2,0,0.04
2013-8-3,77,69,65,66,54,28,95,62,17,30.06,29.99,9,1,0,0.04
2013-8-4,80,69,60,65,36,6,96,45,7,30.10,29.96,10,2,0,0.00
2013-8-5,79,67,56,59,32,-2,93,41,5,30.20,30.08,7,0,0,0.00
2013-8-6,68,64,60,64,56,45,96,78,46,30.20,30.11,4,0,0,0.24
2013-8-7,81,70,63,69,53,38,96,60,23,30.19,30.08,7,1,0,0.28
2013-8-8,85,76,70,70,52,32,95,52,17,30.14,30.05,11,3,0,0.04
2013-8-9,85,77,73,73,60,40,92,60,20,30.09,29.93,14,4,0,0.51
2013-8-10,81,74,68,71,44,18,86,41,10,30.17,29.99,6,1,0,0.00
2013-8-11,85,73,64,70,43,7,96,47,6,30.21,30.09,7,1,0,0.00
2013-8-12,86,75,68,70,52,21,96,56,10,30.14,29.99,9,0,0,0.00
2013-8-13,81,74,70,70,55,30,91,58,16,30.01,29.84,12,2,0,0.87
2013-8-14,74,65,57,67,26,6,93,29,8,30.18,29.91,14,3,0,0.04
2013-8-15,76,64,53,59,32,-3,97,48,5,30.27,30.15,6,0,0,0.00
2013-8-16,80,65,55,61,34,-1,98,49,5,30.31,30.19,4,0,0,0.00
2013-8-17,79,67,58,62,38,0,98,52,5,30.37,30.28,4,0,0,0.00
2013-8-18,73,66,63,61,48,28,92,58,21,30.33,30.22,6,1,0,0.00
2013-8-19,74,68,62,66,51,33,97,63,24,30.27,30.14,7,1,0,0.00
2013-8-20,86,73,64,70,49,16,97,57,8,30.25,30.16,7,1,0,0.00
2013-8-21,84,76,68,72,52,18,97,54,9,30.29,30.14,10,2,0,0.00
2013-8-22,86,75,70,73,55,26,96,59,12,30.19,29.98,8,2,0,0.04
2013-8-23,78,70,61,66,46,19,93,49,12,30.19,29.99,5,1,0,0.00
2013-8-24,84,68,58,63,38,1,97,51,5,30.45,30.18,6,0,0,0.00
2013-8-25,80,67,56,66,35,-4,99,50,4,30.53,30.35,6,1,0,0.00
2013-8-26,83,70,58,56,38,18,90,38,10,30.39,30.07,9,3,0,0.00
2013-8-27,87,76,70,66,42,17,81,34,8,30.07,29.94,8,2,0,0.00
2013-8-28,84,75,70,73,58,26,95,64,13,29.99,29.91,8,1,0,0.24
2013-8-29,84,74,66,71,51,25,94,54,13,30.12,29.93,7,1,0,0.00
2013-8-30,82,73,66,67,50,33,94,53,18,30.13,29.96,11,3,0,0.00
2013-8-31,85,76,70,69,51,31,94,49,15,30.01,29.90,11,3,0,0.16
2013-9-1,89,78,73,71,52,24,94,51,11,29.95,29.86,7,1,0,0.00
2013-9-2,86,78,72,72,52,24,89,49,11,29.92,29.82,8,2,0,0.00
2013-9-3,83,75,65,72,37,6,94,35,6,30.03,29.82,12,2,0,0.00
2013-9-4,80,68,57,50,26,-1,73,28,5,30.16,30.01,9,2,0,0.00
2013-9-5,81,70,59,62,31,8,94,32,9,30.22,30.05,10,2,0,0.00
2013-9-6,75,62,52,46,17,-5,70,23,5,30.36,30.21,7,1,0,0.00
2013-9-7,81,64,50,54,30,0,97,43,5,30.26,30.01,7,1,0,0.00
2013-9-8,87,72,63,64,37,13,89,38,8,30.15,29.94,9,2,0,0.00
2013-9-9,78,66,53,52,27,12,59,27,9,30.30,30.14,6,0,0,0.00
2013-9-10,87,76,67,67,48,26,89,46,12,30.27,30.14,11,3,0,0.00
2013-9-11,90,79,73,71,47,19,93,43,8,30.23,30.07,11,2,0,0.00
2013-9-12,88,75,71,70,52,18,93,52,8,30.09,29.85,12,3,0,0.12
2013-9-13,78,68,60,70,38,4,95,44,7,29.99,29.79,12,2,0,0.00
2013-9-14,67,58,49,48,24,1,87,35,8,30.27,29.98,10,2,0,0.00
2013-9-15,74,60,47,58,32,3,99,51,7,30.35,30.17,11,2,0,0.00
2013-9-16,73,63,57,63,37,6,96,45,8,30.33,30.12,7,2,0,0.00
2013-9-17,67,55,45,49,17,-10,95,30,5,30.53,30.33,8,2,0,0.00
2013-9-18,72,56,47,59,31,-4,100,59,6,30.48,30.28,9,1,0,0.00
2013-9-19,77,62,51,58,33,0,100,50,6,30.32,30.16,12,2,0,0.00
2013-9-20,81,65,54,62,37,2,100,53,5,30.20,30.04,8,1,0,0.00
2013-9-21,67,58,56,66,54,46,98,90,64,30.11,29.79,5,0,0,0.79
2013-9-22,71,63,53,65,26,0,97,33,7,30.03,29.80,13,3,0,0.04
2013-9-23,65,57,47,44,16,-5,84,29,7,30.19,30.03,10,2,0,0.00
2013-9-24,70,61,48,55,18,-3,99,32,6,30.20,30.00,9,2,0,0.00
2013-9-25,74,64,50,56,23,-1,100,34,6,30.07,29.95,6,1,0,0.00
2013-9-26,76,67,57,58,24,0,98,34,6,30.16,30.04,7,0,0,0.00
2013-9-27,74,64,55,58,27,3,95,34,7,30.35,30.22,5,0,0,0.00
2013-9-28,76,66,55,48,19,-1,74,22,6,30.41,10.12,7,1,0,0.00
2013-9-30,76,68,55,50,13,-3,79,17,5,30.14,5.02,7,1,0,0.00
2013-10-1,81,74,64,52,23,9,65,18,7,30.10,30.02,11,3,0,0.00
2013-10-2,82,76,62,66,26,8,100,23,6,30.16,30.03,13,4,0,0.00
2013-10-3,83,76,62,68,32,10,100,29,7,30.21,10.06,5,1,0,0.00
2013-10-4,87,77,32,64,34,-58,84,32,1,30.14,0.00,9,2,0,5.39
2013-10-5,87,74,64,72,47,10,100,57,6,30.17,30.05,9,1,0,0.00
2013-10-6,88,74,67,70,46,11,99,54,6,30.14,30.00,15,2,0,0.00
2013-10-7,80,67,56,67,54,26,93,67,21,30.12,29.90,20,4,0,0.31
2013-10-8,64,55,49,43,27,5,77,38,10,30.39,30.13,9,1,0,0.00
2013-10-9,61,55,50,53,33,23,88,44,23,30.42,30.30,9,3,0,0.20
2013-10-10,63,59,55,62,57,53,99,95,88,30.30,30.05,11,4,0,1.34
2013-10-11,66,64,61,64,62,58,98,95,76,30.09,29.99,9,3,0,1.18
2013-10-12,68,62,58,59,42,23,93,54,19,30.27,30.06,9,3,0,0.20
2013-10-13,66,59,53,59,39,18,93,51,16,30.45,30.26,8,2,0,0.00
2013-10-14,69,57,50,56,36,10,98,54,11,30.46,30.31,5,1,0,0.00
2013-10-15,72,59,52,62,42,-4,100,67,5,30.36,30.17,4,0,0,0.00
2013-10-16,71,65,59,63,45,18,96,57,14,30.19,30.02,5,0,0,0.00
2013-10-17,77,68,63,66,49,20,98,59,14,30.02,29.86,15,2,0,0.00
2013-10-18,66,59,52,52,16,-2,63,22,7,30.10,29.90,15,6,0,0.00
2013-10-19,64,57,49,59,38,15,100,58,17,30.12,29.91,10,1,0,0.00
2013-10-20,63,53,45,44,12,-8,87,26,6,30.23,29.94,14,5,0,0.00
2013-10-21,69,54,44,53,23,-7,100,49,5,30.29,30.08,9,2,0,0.00
2013-10-22,66,56,48,52,29,7,94,44,11,30.09,29.93,12,2,0,0.00
2013-10-23,56,48,43,42,18,-6,80,34,9,29.97,29.77,10,2,0,0.08
2013-10-24,54,44,37,20,4,-14,43,21,7,30.25,29.97,18,5,0,0.00
2013-10-25,57,43,36,36,8,-9,78,28,8,30.44,30.24,12,3,0,0.00
2013-10-26,56,45,36,42,12,-12,100,40,7,30.43,30.04,18,4,0,0.00
2013-10-27,60,50,41,43,6,-9,100,24,7,30.31,30.03,20,4,0,0.00
2013-10-28,66,50,39,48,26,-6,100,59,6,30.41,30.27,7,1,0,0.00
2013-10-29,68,52,42,51,25,-8,100,50,6,30.50,30.39,5,0,0,0.00
2013-10-30,65,55,48,59,49,33,100,85,36,30.46,30.26,6,0,0,0.04
2013-10-31,69,61,51,63,45,27,100,64,21,30.32,29.93,14,3,0,0.00
2013-11-1,69,66,59,63,48,34,99,56,30,29.93,29.73,21,6,0,0.16
2013-11-2,70,58,48,61,32,-4,100,54,6,29.96,29.76,14,3,0,0.04
2013-11-3,54,46,33,30,6,-15,55,23,8,30.61,29.95,14,4,0,0.00
2013-11-4,49,37,28,18,-2,-17,50,23,7,30.78,30.61,8,2,0,0.00
2013-11-5,60,47,34,40,20,0,76,40,9,30.77,30.59,6,1,0,0.00
2013-11-6,69,56,43,44,28,3,93,44,9,30.60,30.17,9,2,0,0.00
2013-11-7,61,54,44,55,36,2,92,55,17,30.17,29.93,15,6,0,0.04
2013-11-8,52,42,34,18,-4,-16,49,15,7,30.44,30.14,16,5,0,0.00
2013-11-9,53,42,30,39,12,-11,100,41,8,30.50,30.15,12,3,0,0.00
2013-11-10,63,49,41,17,-1,-15,36,15,6,30.31,30.01,18,7,0,0.00
2013-11-11,55,46,34,24,1,-12,66,18,7,30.42,30.11,12,5,0,0.00
2013-11-12,50,39,27,13,-7,-20,39,14,9,30.53,30.07,18,6,0,0.00
2013-11-13,41,32,25,16,-3,-21,61,26,9,30.60,30.50,15,3,0,0.00
2013-11-14,56,40,27,18,-1,-17,55,22,7,30.53,30.34,11,3,0,0.00
2013-11-15,61,43,32,32,11,-11,83,34,6,30.42,30.27,8,1,0,0.00
2013-11-16,55,51,40,53,42,18,99,74,39,30.45,30.35,6,1,0,0.08
2013-11-17,69,60,53,60,42,21,99,59,19,30.36,29.90,10,2,0,0.00
2013-11-18,68,60,48,57,14,-10,89,25,5,29.99,29.79,36,9,0,0.00
2013-11-19,49,42,32,6,-10,-17,30,11,7,30.52,29.98,19,7,0,0.00
2013-11-20,48,34,26,14,-2,-18,47,24,7,30.72,30.50,7,2,0,0.00
2013-11-21,54,40,27,28,12,0,52,33,12,30.74,30.50,4,1,0,0.00
2013-11-22,58,52,44,56,37,25,98,58,33,30.51,30.07,13,2,0,0.00
2013-11-23,56,42,30,52,0,-18,87,19,8,30.29,30.08,21,10,0,0.00
2013-11-24,32,26,22,-13,-20,-27,16,12,9,30.66,30.27,27,13,0,0.00
2013-11-25,36,26,18,-4,-15,-25,29,15,8,30.74,30.51,11,4,0,0.00
2013-11-26,58,39,29,57,18,-18,100,56,10,30.52,29.69,11,3,0,0.91
2013-11-27,63,40,29,62,28,-15,100,67,13,30.11,29.57,24,11,0,0.87
2013-11-28,37,30,24,14,-8,-21,61,21,9,30.66,30.10,23,7,0,0.00
2013-11-29,41,30,20,22,2,-17,97,38,8,30.90,30.63,16,2,0,0.00
2013-11-30,42,30,20,25,2,-15,86,36,10,30.91,30.52,6,1,0,0.00
2013-12-1,49,35,23,36,16,-7,100,58,11,30.53,30.16,8,1,0,0.00
2013-12-2,46,39,34,28,18,-1,67,46,14,30.16,29.98,4,0,0,0.00
2013-12-3,55,42,33,28,14,-10,75,39,8,30.16,29.99,7,1,0,0.00
2013-12-4,54,45,32,50,28,17,95,56,25,30.20,30.12,8,1,0,0.00
2013-12-5,62,56,50,57,50,38,100,85,42,30.20,30.03,11,4,0,0.00
2013-12-6,62,50,36,62,47,35,99,92,72,30.29,29.98,13,6,0,0.59
2013-12-7,40,35,28,36,17,-1,100,54,18,30.69,30.23,15,5,0,0.24
2013-12-8,31,28,26,31,13,-7,100,61,21,30.76,30.41,8,3,0,0.00
2013-12-9,37,32,30,35,31,25,100,95,63,30.43,30.15,10,2,0,0.71
2013-12-10,36,32,29,36,23,-12,100,78,15,30.36,30.09,12,2,0,0.08
2013-12-11,37,29,22,24,-3,-18,100,31,9,30.57,30.36,11,2,0,0.04
2013-12-12,30,25,20,24,-6,-22,100,31,10,30.58,30.41,12,4,0,0.00
2013-12-13,40,31,20,10,-9,-20,44,18,9,30.49,30.34,16,4,0,0.00
2013-12-14,45,35,27,45,19,-2,100,59,21,30.51,29.81,15,4,0,0.79
2013-12-15,46,36,31,36,13,-12,100,50,13,30.08,29.77,22,8,0,0.00
2013-12-16,36,30,26,9,-6,-18,46,22,11,30.37,30.06,13,5,0,0.00
2013-12-17,33,30,27,25,10,-7,82,48,21,30.35,30.08,8,2,0,0.04
2013-12-18,38,30,24,24,6,-19,93,47,8,30.40,30.11,17,4,0,0.00
2013-12-19,54,39,25,18,2,-13,70,28,7,30.39,30.18,12,3,0,0.00
2013-12-20,56,50,42,32,4,-13,41,17,7,30.24,30.10,15,6,0,0.00
2013-12-21,67,58,51,41,26,16,49,30,14,30.14,30.00,20,9,0,0.00
2013-12-22,67,62,57,60,46,35,88,58,37,30.13,29.95,18,9,0,0.16
2013-12-23,68,56,38,66,46,3,98,74,22,30.33,30.02,17,5,0,0.51
2013-12-24,39,33,23,11,-5,-24,43,21,10,30.61,30.29,20,9,0,0.00
2013-12-25,35,24,18,6,-12,-24,51,21,10,30.74,30.59,15,3,0,0.00
2013-12-26,40,29,19,20,5,-14,78,42,9,30.60,30.35,14,2,0,0.00
2013-12-27,46,35,23,32,6,-16,100,45,8,30.59,30.43,14,3,0,0.00
2013-12-28,54,40,27,26,2,-14,85,27,6,30.49,30.24,12,4,0,0.00
2013-12-29,52,45,38,52,28,-14,99,66,8,30.24,29.63,13,5,0,0.91
2013-12-30,46,37,28,37,13,-13,93,42,15,30.35,29.94,18,4,0,0.00
2013-12-31,41,31,25,5,-10,-18,31,17,10,30.50,30.21,20,5,0,0.00
2014-1-1,43,31,22,25,-1,-18,83,30,8,30.57,30.30,11,2,0,0.00
2014-1-2,35,30,24,30,24,19,98,80,56,30.30,29.78,8,3,0,0.00